Theta_e
329 329 330 330 330 329 329 329 328 328 327 326 324 322 321 319 317 306 299 304 307 317 318 311 312 311 309 303 311 306 298 294 296 295 295 299 298 301 303 300 301 300 304 313 323
329 330 330 330 330 330 330 329 329 329 328 328 326 324 320 318 306 300 311 317 319 321 313 308 305 307 301 301 306 304 298 296 301 301 297 300 299 298 299 299 299 300 309 319 327
330 330 330 330 330 330 329 329 329 329 329 329 328 326 319 310 297 298 313 319 321 315 307 305 305 306 300 300 302 302 297 301 302 304 304 302 302 302 299 298 300 300 304 319 325
330 330 330 330 330 329 329 328 329 329 329 329 329 327 315 304 296 302 319 324 318 306 301 300 304 301 298 295 301 298 302 303 305 306 305 302 304 302 302 301 304 304 309 318 324
329 329 329 329 328 326 327 327 327 328 327 327 328 322 307 296 299 309 315 312 305 302 299 297 296 301 296 296 297 297 300 303 305 306 306 307 304 302 303 305 307 307 310 316 323
328 328 327 324 324 323 322 323 323 325 325 325 325 316 301 293 304 304 305 305 303 300 298 297 295 297 293 293 295 298 299 300 302 303 304 302 304 304 306 308 306 308 305 312 321
325 324 323 323 322 321 320 321 321 322 323 323 323 311 300 299 306 306 306 304 303 301 297 299 298 294 293 292 297 295 292 296 297 299 300 303 299 300 307 307 305 303 303 312 316
322 322 321 321 320 320 319 320 319 320 322 323 321 307 296 306 307 304 304 301 303 302 300 300 299 294 292 294 293 291 293 287 294 297 299 300 291 301 306 305 304 302 300 306 315
321 321 320 320 319 319 318 317 316 316 315 312 304 300 295 305 299 303 302 299 301 301 300 301 298 292 293 287 286 288 283 286 289 299 297 297 292 299 304 304 302 304 299 303 309
320 319 319 319 319 319 317 315 310 309 308 306 303 295 297 295 301 303 300 297 293 295 294 295 293 287 287 285 276 281 282 284 285 293 296 294 293 297 300 302 302 302 301 302 304
319 319 319 319 318 315 312 306 299 296 299 296 294 294 296 300 303 300 302 294 292 289 285 289 283 282 285 286 286 285 283 282 286 291 289 289 289 294 299 300 298 301 299 301 301
318 318 318 318 313 309 304 300 295 296 291 297 296 296 298 298 291 294 297 290 285 282 284 282 279 285 288 289 287 286 283 282 286 290 289 287 287 291 294 298 299 298 301 300 301
317 318 317 314 307 300 295 294 298 300 291 293 294 293 293 294 289 289 288 286 283 280 281 278 281 285 285 284 283 285 283 283 283 287 287 286 284 287 292 295 298 300 300 301 301
315 316 315 309 301 297 295 298 300 299 284 284 285 289 292 292 286 293 291 289 286 281 283 280 284 283 283 281 283 278 286 285 283 282 277 285 274 283 287 290 294 296 296 299 302
310 308 307 307 296 297 297 300 298 294 267 285 286 294 293 289 290 288 293 290 284 283 282 280 282 280 279 281 284 280 285 282 281 279 279 280 277 280 287 287 290 294 295 296 299
308 307 306 299 299 296 299 297 293 276 266 282 288 287 286 288 288 289 288 291 290 284 284 282 286 283 282 284 284 284 280 281 280 279 270 276 278 275 283 286 289 293 295 296 298
305 304 301 300 291 297 297 290 275 270 284 281 281 285 284 281 281 282 281 280 277 272 273 279 279 282 285 280 282 281 275 263 263 267 263 278 277 278 285 288 290 292 294 296 298
303 301 300 298 297 297 292 279 268 277 279 285 284 284 280 281 280 280 278 276 280 277 269 267 268 279 284 280 277 277 276 265 260 260 267 276 271 277 286 289 290 292 294 295 295
302 294 293 295 299 298 284 270 273 278 283 282 282 278 276 281 279 277 274 275 279 280 270 265 272 281 283 283 281 275 273 278 269 271 268 271 275 281 284 285 287 290 292 294 296
294 293 291 298 299 291 278 276 279 284 283 282 277 279 273 276 275 271 272 278 280 284 280 275 265 277 281 282 281 277 280 268 269 259 264 270 271 274 280 284 288 292 293 295 296
295 289 293 299 298 283 271 274 280 285 285 280 278 277 277 275 273 273 273 278 282 282 281 275 271 272 276 276 273 274 274 272 271 268 268 268 272 282 282 286 287 290 293 295 296
293 285 296 297 284 280 279 279 287 284 285 285 282 280 278 277 273 273 275 278 285 283 277 278 269 267 270 278 280 278 268 268 270 262 267 271 271 284 283 286 288 290 292 295 297
288 287 296 294 276 277 280 280 284 282 282 283 281 283 282 277 273 274 277 283 285 282 276 277 267 261 267 270 275 271 276 272 274 275 269 268 272 286 283 286 287 288 291 291 291
286 283 285 287 287 282 280 277 278 285 284 284 282 283 281 278 279 273 276 283 285 284 288 284 273 267 263 263 263 263 264 274 273 269 269 271 273 278 282 282 283 285 289 289 288
288 284 283 273 280 282 282 277 278 279 284 285 281 281 280 275 275 276 278 279 283 286 284 280 272 270 271 273 271 271 269 270 269 272 270 273 274 278 280 281 283 286 286 287 287
283 285 288 285 282 280 279 279 278 280 282 280 280 282 281 277 278 274 278 276 275 277 279 273 272 274 271 274 274 273 274 274 274 275 275 278 277 281 281 283 283 285 284 285 286
291 292 288 285 284 280 276 278 278 282 283 285 283 282 280 281 284 283 283 282 280 274 271 271 272 268 265 272 273 267 272 276 278 279 278 273 276 281 280 281 283 283 283 285 286
Wind_Speed
20 21 21 21 21 21 22 21 21 21 20 21 21 20 18 17 20 6 12 13 9 17 15 10 7 6 4 5 6 5 11 21 24 17 11 4 9 4 3 5 3 5 2 7 18
20 21 21 22 22 22 22 23 23 22 22 22 22 20 14 13 9 16 15 12 14 13 8 9 6 4 4 5 5 11 16 29 18 18 7 15 14 2 4 6 7 3 2 7 19
22 22 22 22 22 22 22 23 23 23 23 23 22 20 8 2 5 9 5 12 8 7 1 2 7 4 8 6 7 9 27 23 17 17 14 12 19 4 7 14 8 5 2 8 15
23 23 23 23 23 23 21 23 24 23 22 22 22 19 13 5 10 2 9 14 10 8 3 4 2 5 8 11 16 17 22 24 16 8 5 13 15 22 12 16 5 5 3 11 17
23 23 23 22 22 21 21 22 23 24 21 22 19 8 9 5 12 6 11 9 7 5 2 3 4 5 13 6 10 20 25 12 13 13 18 17 18 9 15 8 9 6 6 12 18
23 22 22 20 22 20 22 23 22 20 20 20 15 20 5 10 2 1 1 8 3 2 4 2 4 5 8 8 12 8 15 16 13 15 18 16 19 15 27 11 13 10 9 11 18
22 21 21 20 20 22 22 23 23 21 21 23 18 9 7 13 2 10 12 9 10 12 12 9 5 4 5 7 8 6 12 15 18 13 12 10 21 30 27 16 18 8 8 8 17
23 22 21 21 20 20 21 22 16 17 16 14 9 4 6 2 6 12 9 6 11 11 13 12 8 6 6 7 8 8 8 13 11 20 19 13 23 21 10 14 17 10 9 10 14
23 22 21 19 18 19 17 7 12 14 15 12 7 3 5 2 5 7 4 4 8 4 3 9 3 4 4 5 7 6 9 16 14 11 12 21 27 19 12 12 14 12 10 11 9
23 22 20 19 17 17 13 10 5 4 5 8 5 1 2 3 6 8 7 6 3 5 7 4 4 6 5 7 10 8 9 13 14 5 6 13 25 15 11 9 17 14 9 12 13
25 22 20 17 16 10 1 0 1 1 2 3 5 5 2 4 4 5 5 8 3 2 4 6 5 6 10 12 15 16 18 17 15 14 15 11 20 15 16 13 13 12 7 9 11
25 21 17 14 3 7 2 2 3 1 4 4 5 7 6 0 5 8 3 5 4 6 1 3 12 16 13 13 14 17 17 14 12 7 7 13 24 15 12 17 13 12 14 10 7
24 18 13 4 3 5 3 2 3 3 1 3 3 3 5 5 3 6 4 5 6 3 5 6 6 14 7 9 12 13 10 12 15 12 8 12 21 13 11 18 16 18 15 12 12
20 17 6 7 5 3 3 3 5 3 1 4 1 4 1 3 4 7 5 5 1 4 2 5 6 6 2 5 6 6 5 5 9 6 3 6 9 7 3 9 14 19 15 13 14
16 17 15 12 4 2 5 5 5 3 5 3 1 1 5 2 6 2 3 1 6 6 1 5 5 4 6 5 1 6 5 8 6 6 4 8 5 7 6 13 15 12 11 8 10
14 14 11 5 3 4 5 5 3 6 4 3 2 3 4 3 3 5 2 2 5 3 4 8 3 4 4 4 2 4 3 5 2 3 6 12 8 3 7 11 8 12 10 10 9
15 12 7 4 4 6 5 4 6 6 2 4 3 4 4 4 5 2 3 4 2 5 4 6 3 3 1 4 5 5 4 4 7 1 7 7 7 16 16 16 14 16 15 10 9
12 10 8 7 4 5 3 6 6 3 3 2 3 6 4 2 2 5 4 3 2 3 1 2 7 3 4 1 2 4 3 5 4 2 5 12 8 7 7 12 13 16 15 10 9
8 3 3 4 7 3 5 5 6 4 1 2 4 2 4 2 4 4 2 3 3 3 6 3 5 4 2 2 1 4 0 4 1 5 3 6 9 10 20 26 18 17 16 14 14
2 2 3 5 8 4 6 4 2 0 3 1 3 1 2 4 3 4 3 3 2 1 3 4 4 3 3 3 3 2 1 3 3 4 6 6 6 10 13 18 14 14 15 12 9
2 2 2 4 4 4 3 6 4 2 3 3 3 3 6 2 4 3 5 5 3 2 4 4 5 4 2 3 2 2 1 4 2 2 5 6 4 6 9 10 13 15 16 15 11
1 2 1 3 1 1 2 4 3 4 2 4 2 5 5 2 3 4 6 6 2 5 4 3 4 4 6 6 5 1 5 4 3 7 4 5 8 4 19 15 14 15 17 18 10
1 1 2 2 2 2 4 5 4 4 4 5 6 8 4 3 3 6 4 5 5 5 6 5 0 4 10 8 6 5 2 4 3 3 10 6 7 9 19 15 17 18 17 16 18
3 2 1 1 1 2 3 6 4 4 4 5 4 4 3 5 7 6 4 4 3 6 10 6 4 7 8 9 4 3 3 3 3 6 8 13 22 26 12 18 20 20 19 16 15
2 4 4 3 6 8 4 2 3 4 5 7 4 11 8 5 3 10 11 11 10 6 3 5 5 5 6 6 5 9 10 9 11 15 10 19 20 21 14 14 13 15 17 18 20
4 3 2 2 3 5 6 6 7 9 5 6 12 11 14 12 10 6 5 5 7 2 6 1 3 3 4 10 11 15 15 15 16 15 18 14 10 12 12 12 14 14 19 19 19
1 1 3 3 4 4 6 7 7 4 8 12 10 12 10 22 14 16 5 4 5 6 5 4 4 3 5 2 7 10 6 6 2 2 3 3 5 9 13 15 8 14 18 18 16
Wind_Direction
306 305 298 292 287 284 284 282 278 274 269 268 264 261 271 290 305 303 260 226 207 244 272 269 272 262 238 229 214 180 241 240 235 236 227 278 228 205 217 229 282 193 201 295 135
300 297 297 297 296 293 289 287 285 280 276 269 263 254 254 290 307 284 251 245 234 253 241 248 268 261 241 218 218 217 232 236 238 236 250 227 236 328 291 280 276 311 15 127 151
302 301 300 299 298 296 294 292 287 284 283 281 273 256 207 352 290 250 205 190 234 309 307 246 251 219 228 249 209 224 236 237 237 239 258 263 252 251 238 258 231 255 124 168 179
307 304 300 299 298 295 297 300 294 289 289 289 282 279 137 157 281 156 174 188 29 333 314 281 200 209 250 223 229 263 246 245 259 253 273 237 247 254 251 251 257 218 171 169 198
309 307 305 309 319 321 308 311 308 295 294 293 288 175 130 197 235 330 311 323 354 347 249 232 235 232 241 221 235 243 250 265 252 249 260 264 256 259 266 257 263 266 177 182 200
316 317 317 326 317 324 318 313 311 305 301 293 299 145 155 230 239 235 295 324 315 288 259 222 245 309 286 256 258 287 267 258 262 267 254 259 268 256 250 239 262 257 233 210 203
327 327 324 321 321 319 319 320 317 309 296 287 287 155 192 228 178 314 304 287 280 271 268 251 234 205 334 296 325 277 282 283 265 257 259 278 259 239 250 251 258 240 247 213 210
325 323 319 317 319 317 322 319 338 326 317 307 158 112 245 251 305 299 292 282 259 253 237 247 237 239 247 284 301 289 278 256 262 248 247 229 259 252 239 232 248 238 220 223 213
323 318 313 312 316 315 322 349 44 54 66 75 66 63 279 309 255 278 170 256 309 330 297 247 176 212 251 231 269 226 272 270 285 245 237 201 254 254 243 252 246 242 203 215 217
319 312 306 306 313 313 309 324 77 77 93 96 106 35 359 19 0 332 24 333 309 36 356 325 254 225 201 204 240 257 253 253 263 308 324 280 259 264 278 253 249 246 215 212 217
317 311 306 303 319 335 6 296 340 327 0 345 348 279 14 334 337 272 267 333 337 92 274 271 281 254 219 209 240 266 282 283 296 294 314 305 314 297 303 281 290 261 244 217 222
326 317 307 305 330 352 43 357 61 106 320 317 303 274 285 320 302 289 175 200 188 239 229 242 248 252 231 226 236 251 260 275 278 295 319 287 279 278 249 271 270 288 269 243 207
332 332 326 78 82 44 85 148 286 305 325 307 254 261 272 127 241 274 143 173 228 238 197 202 258 327 238 241 255 252 269 283 275 302 292 263 275 261 238 237 249 259 258 263 221
359 5 46 131 64 330 18 35 21 350 38 316 299 291 170 184 269 224 216 186 275 263 211 234 261 306 329 267 265 281 261 321 357 6 286 69 294 284 262 246 234 243 240 237 241
19 41 49 46 132 28 344 36 360 11 30 258 242 172 344 226 294 310 199 188 251 255 35 264 291 310 312 255 61 240 350 321 303 271 248 249 251 281 244 240 241 245 249 244 244
8 3 347 15 45 19 14 1 26 42 280 321 32 325 349 282 269 295 245 181 248 267 226 242 289 265 238 289 276 307 316 319 279 190 251 266 242 223 244 241 256 254 246 231 239
27 25 26 2 25 360 347 15 29 96 0 336 328 1 340 275 295 310 317 294 241 357 337 319 242 315 346 357 351 51 50 351 6 24 230 356 294 250 264 258 254 260 260 247 234
42 30 46 58 346 347 31 44 67 242 235 15 334 304 265 324 351 339 323 287 290 147 62 170 334 64 352 230 282 306 132 151 237 238 260 326 264 254 283 289 287 277 278 277 244
11 3 20 330 336 18 54 42 208 230 299 342 298 306 309 324 187 335 260 242 243 157 169 100 275 318 109 307 89 308 254 223 199 266 282 231 284 297 264 275 287 292 270 268 259
63 20 312 333 332 38 68 252 243 91 103 27 233 190 264 293 344 46 291 237 215 163 142 197 331 285 296 3 28 201 241 35 356 325 293 272 260 251 290 302 346 355 348 356 335
75 335 357 354 358 45 150 237 278 214 146 182 254 261 234 278 186 212 254 287 205 192 75 122 120 262 242 199 187 325 62 37 97 193 285 315 295 35 49 12 358 342 340 325 315
102 303 65 25 1 80 238 227 278 218 156 226 248 240 226 244 281 241 238 236 185 150 187 187 153 282 219 257 248 178 161 104 131 306 254 246 252 297 357 347 352 345 350 336 323
166 303 64 1 232 228 274 276 254 201 191 199 240 215 203 236 244 221 256 261 207 166 180 200 337 356 343 358 360 67 97 149 189 203 239 259 273 315 321 344 347 332 342 343 338
117 282 169 197 283 240 251 249 247 212 237 207 250 202 200 232 227 262 234 270 234 203 231 154 177 171 200 208 153 323 248 203 214 254 281 261 285 294 343 341 340 335 339 336 341
160 241 183 203 226 220 188 230 234 249 215 204 240 220 204 239 224 234 246 257 280 265 185 144 215 196 244 254 211 249 260 246 231 242 241 280 285 297 342 324 323 332 341 340 345
165 194 169 228 190 194 210 208 219 249 203 215 231 236 216 231 206 205 200 178 218 41 166 29 255 200 274 233 239 266 264 264 259 254 258 263 288 354 324 321 337 355 347 345 338
155 31 142 220 191 182 206 213 228 179 239 233 231 253 226 236 233 246 232 184 246 186 172 143 144 106 265 16 306 286 236 285 268 113 261 254 251 310 325 345 43 355 354 340 328